When you browse on this site, cookies collect data to enhance your experience and personalize the content and advertising you see.
Visit our Privacy Policy to learn more. By continuing to use the site, you agree to this use of cookies and data.
  • In Romania
  • List of Countries
  • For 7 days
  • Water Temperature
  • Weather Map
  • Weather Widgets
  • user-avatar
    Login

    Hourly Weather Brasília

    Today, 14 November, Thursday

    Time Temperature Precipitation Wind Pressure Humidity
    00:00 +24°C° 0 mm 1 mps 664 mmHg 56%
    01:00 +24°C° 0.1 mm 1 mps 664 mmHg 59%
    02:00 +24°C° 0.1 mm 1 mps 664 mmHg 63%
    03:00 +24°C° 0.1 mm 1 mps 664 mmHg 66%
    04:00 +24°C° 0.1 mm 1 mps 664 mmHg 68%
    05:00 +23°C° 0.1 mm 1 mps 664 mmHg 69%
    06:00 +23°C° 0.1 mm 1 mps 664 mmHg 71%
    07:00 +25°C° 0.1 mm 1 mps 665 mmHg 64%
    08:00 +27°C° 0.1 mm 1 mps 666 mmHg 56%
    09:00 +29°C° 0.1 mm 2 mps 667 mmHg 49%
    10:00 +30°C° 0.1 mm 2 mps 667 mmHg 45%
    11:00 +31°C° 0.1 mm 2 mps 666 mmHg 41%
    12:00 +32°C° 0.1 mm 2 mps 666 mmHg 36%
    13:00 +32°C° 0 mm 2 mps 666 mmHg 37%
    14:00 +31°C° 0 mm 2 mps 665 mmHg 37%
    15:00 +31°C° 0 mm 1 mps 664 mmHg 37%
    16:00 +30°C° 0 mm 1 mps 664 mmHg 42%
    17:00 +29°C° 0 mm 1 mps 663 mmHg 47%
    18:00 +28°C° 0 mm 1 mps 663 mmHg 52%
    19:00 +27°C° 0 mm 1 mps 663 mmHg 55%
    20:00 +26°C° 0 mm 1 mps 664 mmHg 57%
    21:00 +25°C° 0 mm 1 mps 664 mmHg 60%
    22:00 +24°C° 0.2 mm 1 mps 664 mmHg 64%
    23:00 +24°C° 0.2 mm 1 mps 664 mmHg 69%

    Tomorrow, 15 November, Friday

    Time Temperature Precipitation Wind Pressure Humidity
    00:00 +23°C° 0.2 mm 1 mps 664 mmHg 73%
    01:00 +22°C° 0.3 mm 1 mps 663 mmHg 77%
    02:00 +21°C° 0.3 mm 2 mps 663 mmHg 80%
    03:00 +20°C° 0.3 mm 2 mps 663 mmHg 83%
    04:00 +21°C° 0 mm 1 mps 663 mmHg 84%
    05:00 +21°C° 0 mm 1 mps 663 mmHg 84%
    06:00 +21°C° 0 mm 1 mps 663 mmHg 85%
    07:00 +23°C° 0 mm 1 mps 664 mmHg 75%
    08:00 +26°C° 0 mm 1 mps 665 mmHg 64%
    09:00 +28°C° 0 mm 2 mps 666 mmHg 54%
    10:00 +29°C° 0.1 mm 2 mps 666 mmHg 49%
    11:00 +30°C° 0.1 mm 3 mps 665 mmHg 45%
    12:00 +31°C° 0.1 mm 3 mps 665 mmHg 40%
    13:00 +31°C° 0 mm 3 mps 665 mmHg 40%
    14:00 +31°C° 0 mm 3 mps 664 mmHg 40%
    15:00 +31°C° 0 mm 3 mps 663 mmHg 40%
    16:00 +29°C° 0.4 mm 3 mps 663 mmHg 49%
    17:00 +27°C° 0.4 mm 3 mps 662 mmHg 57%
    18:00 +25°C° 0.4 mm 2 mps 662 mmHg 66%
    19:00 +25°C° 0.5 mm 2 mps 662 mmHg 68%
    20:00 +24°C° 0.5 mm 2 mps 663 mmHg 71%
    21:00 +24°C° 0.5 mm 1 mps 663 mmHg 73%
    22:00 +23°C° 0.3 mm 1 mps 663 mmHg 76%
    23:00 +23°C° 0.3 mm 1 mps 663 mmHg 78%

    Day after tomorrow, 16 November, Saturday

    Time Temperature Precipitation Wind Pressure Humidity
    00:00 +22°C° 0.3 mm 1 mps 663 mmHg 80%
    01:00 +22°C° 0 mm 1 mps 662 mmHg 81%
    02:00 +20°C° 0 mm 0 mps 662 mmHg 83%
    03:00 +20°C° 0 mm 0 mps 661 mmHg 84%
    04:00 +20°C° 0 mm 0 mps 661 mmHg 83%
    05:00 +20°C° 0 mm 0 mps 662 mmHg 83%
    06:00 +20°C° 0 mm 0 mps 662 mmHg 83%
    07:00 +21°C° 0.1 mm 0 mps 662 mmHg 78%
    08:00 +24°C° 0.1 mm 1 mps 663 mmHg 73%
    09:00 +25°C° 0.1 mm 1 mps 663 mmHg 68%
    10:00 +26°C° 0.1 mm 2 mps 663 mmHg 63%
    11:00 +27°C° 0.1 mm 2 mps 663 mmHg 58%
    12:00 +28°C° 0.1 mm 3 mps 663 mmHg 53%
    13:00 +28°C° 0.8 mm 3 mps 663 mmHg 54%
    14:00 +28°C° 0.8 mm 3 mps 662 mmHg 55%
    15:00 +28°C° 0.8 mm 3 mps 661 mmHg 56%
    16:00 +26°C° 2 mm 3 mps 661 mmHg 65%
    17:00 +24°C° 2 mm 2 mps 661 mmHg 73%
    18:00 +21°C° 2 mm 2 mps 660 mmHg 82%
    19:00 +21°C° 0.1 mm 2 mps 661 mmHg 81%
    20:00 +22°C° 0.1 mm 1 mps 661 mmHg 80%
    21:00 +22°C° 0.1 mm 1 mps 661 mmHg 79%
    22:00 +22°C° 0 mm 1 mps 661 mmHg 80%
    23:00 +22°C° 0 mm 1 mps 661 mmHg 81%

    17 November, Sunday

    Time Temperature Precipitation Wind Pressure Humidity
    00:00 +22°C° 0 mm 1 mps 662 mmHg 82%
    01:00 +22°C° 0.1 mm 1 mps 661 mmHg 82%
    02:00 +21°C° 0.1 mm 1 mps 661 mmHg 83%
    03:00 +21°C° 0.1 mm 1 mps 661 mmHg 83%
    04:00 +19°C° 0 mm 0 mps 661 mmHg 83%
    05:00 +19°C° 0 mm 0 mps 661 mmHg 83%
    06:00 +19°C° 0 mm 0 mps 661 mmHg 82%
    07:00 +23°C° 0.1 mm 1 mps 662 mmHg 75%
    08:00 +25°C° 0.1 mm 1 mps 663 mmHg 68%
    09:00 +27°C° 0.1 mm 1 mps 664 mmHg 61%
    10:00 +29°C° 0.2 mm 1 mps 664 mmHg 56%
    11:00 +30°C° 0.2 mm 1 mps 664 mmHg 51%
    12:00 +32°C° 0.2 mm 1 mps 664 mmHg 46%
    13:00 +30°C° 1.6 mm 2 mps 663 mmHg 53%
    14:00 +28°C° 1.6 mm 2 mps 662 mmHg 60%
    15:00 +26°C° 1.6 mm 2 mps 661 mmHg 67%
    16:00 +26°C° 1.6 mm 2 mps 661 mmHg 70%
    17:00 +25°C° 1.6 mm 2 mps 661 mmHg 73%
    18:00 +25°C° 1.6 mm 2 mps 661 mmHg 76%
    19:00 +24°C° 5 mm 2 mps 661 mmHg 82%
    20:00 +23°C° 5 mm 2 mps 661 mmHg 87%
    21:00 +21°C° 5 mm 2 mps 662 mmHg 92%
    22:00 +22°C° 0.9 mm 1 mps 662 mmHg 91%
    23:00 +22°C° 0.9 mm 1 mps 662 mmHg 90%

    18 November, Monday

    Time Temperature Precipitation Wind Pressure Humidity
    00:00 +22°C° 0.9 mm 1 mps 662 mmHg 90%
    01:00 +21°C° 1 mm 1 mps 662 mmHg 90%
    02:00 +21°C° 1 mm 1 mps 662 mmHg 90%
    03:00 +21°C° 1 mm 1 mps 661 mmHg 90%
    04:00 +21°C° 0.7 mm 1 mps 662 mmHg 89%
    05:00 +21°C° 0.7 mm 1 mps 662 mmHg 88%
    06:00 +22°C° 0.7 mm 1 mps 662 mmHg 88%
    07:00 +23°C° 0.7 mm 1 mps 663 mmHg 84%
    08:00 +24°C° 0.7 mm 2 mps 663 mmHg 80%
    09:00 +25°C° 0.7 mm 2 mps 664 mmHg 76%
    10:00 +25°C° 2.1 mm 2 mps 664 mmHg 75%
    11:00 +26°C° 2.1 mm 3 mps 664 mmHg 74%
    12:00 +26°C° 2.1 mm 4 mps 664 mmHg 73%
    13:00 +26°C° 2.8 mm 4 mps 664 mmHg 74%
    14:00 +26°C° 2.8 mm 4 mps 663 mmHg 76%
    15:00 +25°C° 2.8 mm 3 mps 663 mmHg 78%
    16:00 +24°C° 3.1 mm 3 mps 663 mmHg 83%
    17:00 +22°C° 3.1 mm 3 mps 662 mmHg 88%
    18:00 +20°C° 3.1 mm 2 mps 662 mmHg 93%
    19:00 +20°C° 1.6 mm 2 mps 663 mmHg 93%
    20:00 +21°C° 1.6 mm 1 mps 663 mmHg 92%
    21:00 +21°C° 1.6 mm 1 mps 664 mmHg 92%
    22:00 +21°C° 1 mm 1 mps 664 mmHg 93%
    23:00 +21°C° 1 mm 1 mps 664 mmHg 94%

    19 November, Tuesday

    Time Temperature Precipitation Wind Pressure Humidity
    00:00 +20°C° 1 mm 1 mps 664 mmHg 94%
    01:00 +20°C° 0.5 mm 1 mps 664 mmHg 93%
    02:00 +20°C° 0.5 mm 1 mps 663 mmHg 92%
    03:00 +20°C° 0.5 mm 1 mps 663 mmHg 91%
    04:00 +20°C° 0.3 mm 1 mps 663 mmHg 92%
    05:00 +20°C° 0.3 mm 1 mps 664 mmHg 92%
    06:00 +20°C° 0.3 mm 1 mps 664 mmHg 92%
    07:00 +21°C° 1.2 mm 1 mps 664 mmHg 92%
    08:00 +21°C° 1.2 mm 1 mps 665 mmHg 91%
    09:00 +21°C° 1.2 mm 1 mps 665 mmHg 91%
    10:00 +19°C° 0.2 mm 0 mps 665 mmHg 90%
    11:00 +19°C° 0.2 mm 0 mps 665 mmHg 89%
    12:00 +20°C° 0.2 mm 0 mps 665 mmHg 87%
    13:00 +20°C° 0.2 mm 0 mps 664 mmHg 87%
    14:00 +22°C° 0.2 mm 1 mps 664 mmHg 87%
    15:00 +22°C° 0.2 mm 1 mps 663 mmHg 87%
    16:00 +21°C° 0.1 mm 1 mps 663 mmHg 88%
    17:00 +19°C° 0.1 mm 0 mps 663 mmHg 89%
    18:00 +19°C° 0.1 mm 0 mps 663 mmHg 89%
    19:00 +19°C° 0 mm 0 mps 664 mmHg 89%
    20:00 +19°C° 0 mm 0 mps 664 mmHg 89%
    21:00 +19°C° 0 mm 0 mps 665 mmHg 89%
    22:00 +21°C° 0 mm 1 mps 665 mmHg 89%
    23:00 +21°C° 0 mm 1 mps 665 mmHg 90%
    Show more